Lexington Weather

Lexington, Massachusetts, USA

23°F
3/3/2021 3:05am 
  • Lexington Conditions: Overcast
  • Temperature: 23.4°F / -4.8°CWarmer 1.8°F than last hour.
  • Dew Point: 10.8°FIncreased 2.2°Fsince last hour.
  • Relative Humidity: 58%Increased 1.0% since last hour.
  • Wind: Wind from WSW WSW 3 mph, 10-min avg: 1 mph, gust: 5 mph
  • Barometer: 29.86 inFalling 0.04  inHg/hr Falling Slowly
  • Visibility: 10 miles
  • Snow Today: 0.0 in
  •   

Regional Weather Roundup
for Boston / Norton, MA

        
000
ASUS41 KBOX 282004
RWRBOX

REGIONAL WEATHER ROUNDUP
NATIONAL WEATHER SERVICE BOSTON/NORTON MA
300 PM EST SUN FEB 28 2021

NOTE:  "FAIR" INDICATES FEW OR NO CLOUDS BELOW 12,000 FEET WITH NO 
SIGNIFICANT WEATHER AND/OR OBSTRUCTIONS TO VISIBILITY.

MAZALL-282100-
EASTERN MASSACHUSETTS
  
CITY           SKY/WX    TMP DP  RH WIND       PRES   REMARKS
BOSTON         CLOUDY    43  29  57 NE6       30.23F                  
BEVERLY        CLOUDY    44  29  55 CALM      30.22F                  
LAWRENCE       CLOUDY    42  29  59 N3        30.23F                  
BEDFORD        CLOUDY    42  29  59 CALM      30.20F                  
BLUE HILL        N/A     41  29  62 CALM      30.19F                  
NORWOOD        CLOUDY    45  29  53 CALM      30.22F                  
MARSHFIELD     CLOUDY    43  32  65 E6        30.24F                  
PLYMOUTH       CLOUDY    43  31  62 E6        30.23F                  
TAUNTON        CLOUDY    45  31  58 E3        30.23F                  
NEW BEDFORD    CLOUDY    46  31  55 E5        30.23F                  
$$

MAZALL-282100-
CAPE COD AND THE ISLANDS
  
CITY           SKY/WX    TMP DP  RH WIND       PRES   REMARKS
FALMOUTH       SUNNY     43  32  65 E5        30.24F                  
HYANNIS        CLOUDY    43  30  60 NE7       30.23F                  
CHATHAM        CLOUDY    43  29  57 NE5       30.26F                  
PROVINCETOWN   CLOUDY    41  33  73 NE6       30.25F                  
NANTUCKET      CLOUDY    43  39  86 NE5       30.26S                  
MARTHAS VNYRD  CLOUDY    44  32  62 E7        30.25S                  
$$
 
MAZALL-282100-
CENTRAL AND WESTERN MASSACHUSETTS
  
CITY           SKY/WX    TMP DP  RH WIND       PRES   REMARKS
WORCESTER      CLOUDY    41  27  57 VRB3      30.19F                  
FITCHBURG      CLOUDY    42  31  64 SE3       30.21F                  
ORANGE         CLOUDY    40  30  67 SW3       30.20F                  
SPRINGFIELD    CLOUDY    42  31  63 E3        30.19F                  
WESTFIELD      CLOUDY    41  32  70 CALM      30.19F                  
NORTH ADAMS    CLOUDY    45  26  47 E8        30.15F                  
PITTSFIELD     CLOUDY    42  25  50 SE8       30.12F                  
$$
 
RIZALL-282100-
RHODE ISLAND
  
CITY           SKY/WX    TMP DP  RH WIND       PRES   REMARKS
PROVIDENCE     CLOUDY    45  29  53 E5        30.23F                  
NEWPORT        CLOUDY    44  29  55 E3        30.23F                  
BLOCK ISLAND   CLOUDY    41  32  70 E7        30.25S                  
SMITHFIELD     CLOUDY    42  31  64 CALM      30.22F                  
WESTERLY       CLOUDY    42  33  70 SE6       30.24S                  
$$
 
CTZALL-282100-
CONNECTICUT
  
CITY           SKY/WX    TMP DP  RH WIND       PRES   REMARKS
BRADLEY INTL   CLOUDY    42  32  67 CALM      30.20F                  
HARTFORD       CLOUDY    44  32  62 CALM      30.21F                  
BRIDGEPORT     LGT RAIN  40  34  79 SE7       30.22F                  
DANBURY        LGT RAIN  43  32  65 SE6       30.20F                  
GROTON         CLOUDY    44  35  70 SE8       30.23F                  
NEW HAVEN      CLOUDY    44  35  70 E6        30.21F                  
CHESTER        FAIR      45  34  65 SE3       30.21F                  
MERIDEN        CLOUDY    43  31  62 SE5       30.21F                  
WILLIMANTIC    CLOUDY    45  31  58 S6        30.22F                  
OXFORD         LGT RAIN  41  34  76 SE7       30.19F                  
$$

MEZ002-015-021-024-NHZ003-005-008-011-012-014-VTZ005-008-282100-
NORTHERN NEW ENGLAND
  
CITY           SKY/WX    TMP DP  RH WIND       PRES   REMARKS
PORTLAND ME    CLOUDY    41  28  60 S8        30.24F                  
BANGOR ME      PTSUNNY   44  23  43 CALM      30.22F                  
CONCORD NH     CLOUDY    42  28  57 CALM      30.21F                  
MANCHESTER NH  CLOUDY    43  29  57 E5        30.19F                  
NASHUA NH      CLOUDY    41  31  67 SE6       30.21F                  
PORTSMOUTH NH  CLOUDY    43  28  55 CALM      30.21F                  
JAFFREY NH     CLOUDY    40  28  62 CALM      30.18F                  
KEENE NH       CLOUDY    39  31  72 CALM      30.20F                  
BURLINGTON VT  CLOUDY    42  26  53 S9        30.12F                  
MT. WASHINGTON CLOUDY    23   7  50 SW15        N/A  WCI  10          
$$

NYZ052-076-282100-
EASTERN NEW YORK
  
CITY           SKY/WX    TMP DP  RH WIND       PRES   REMARKS
ALBANY         CLOUDY    41  31  67 SE3       30.15F                  
NEW YORK CITY  LGT RAIN  41  35  79 VRB6      30.21F                  
$$
 
ANZALL-282100-
MARINE OBSERVATIONS
  
STATION/POSITION TIME  TEMP    WIND        PRES    VSBY  WAVE
                       AIR SEA DIR/SP/G                  HT/PER
                 (UTC) (F)     (DEG/KT/KT) (MB)    (MI)  (FT/S)
BOSTON BUOY      1940   39 39   40/  4/  4 1024.5F
BUZZARDS BAY     1900           60/  8/  8 1025.4F
NANTUCKET SOUND  1940      37   70/  4/  4   N/A
MASS BAY-STELLWA 1904   40     220/  4/  4 1024.3F  1 7/8  2/11
ISLE OF SHOALS   1900   40     190/  6/  6 1024.9F
S OF BLOCK IS    1926      40                N/A           4/ 9
$$

......................KEY.........................
  SKY/WX - SKY CONDITION/PRESENT WEATHER
  TMP    - TEMPERATURE IN FAHRENHEIT
  DWPT   - DEWPOINT IN FAHRENHEIT
  RH     - RELATIVE HUMIDITY IN PERCENT
  WIND   - DIRECTION AND SPEED IN MPH
  PRES   - MEAN SEA LEVEL PRESSURE IN INCHES OF HG
  WCI    - WIND CHILL INDEX
  VSB    - VISIBILITY IN MILES
  HX     - HEAT INDEX
  TC     - TEMPERATURE IN CELSIUS
  VRB    - VARIABLE WIND DIRECTION
  N/A    - NOT AVAILABLE
  
      

Other recent Regional Weather Roundups

Wed Mar 3, 2:04am

Wed Mar 3, 1:04am

Wed Mar 3, 12:04am

Tue Mar 2, 11:04pm

Tue Mar 2, 10:05pm

Tue Mar 2, 9:04pm

Tue Mar 2, 8:04pm

Tue Mar 2, 7:04pm

Tue Mar 2, 6:04pm

Tue Mar 2, 5:04pm

Tue Mar 2, 4:05pm

Tue Mar 2, 3:04pm

Tue Mar 2, 2:04pm

Tue Mar 2, 1:04pm

Tue Mar 2, 12:04pm

Tue Mar 2, 11:04am

Tue Mar 2, 10:05am

Tue Mar 2, 9:04am

Tue Mar 2, 8:04am

Tue Mar 2, 7:04am

Tue Mar 2, 6:05am

Tue Mar 2, 5:04am

Tue Mar 2, 4:04am

Tue Mar 2, 3:04am

Tue Mar 2, 2:04am

Tue Mar 2, 1:04am

Tue Mar 2, 12:04am

Mon Mar 1, 11:04pm

Mon Mar 1, 10:04pm

Mon Mar 1, 9:04pm

Mon Mar 1, 8:04pm

Mon Mar 1, 7:04pm

Mon Mar 1, 6:04pm

Mon Mar 1, 5:04pm

Mon Mar 1, 4:05pm

Mon Mar 1, 3:05pm

Mon Mar 1, 2:04pm

Mon Mar 1, 1:04pm

Mon Mar 1, 12:04pm

Mon Mar 1, 11:04am

Mon Mar 1, 10:04am

Mon Mar 1, 9:04am

Mon Mar 1, 8:05am

Mon Mar 1, 7:04am

Mon Mar 1, 6:04am

Mon Mar 1, 5:04am

Mon Mar 1, 4:05am

Mon Mar 1, 3:04am

Mon Mar 1, 2:04am

Mon Mar 1, 1:04am

Mon Mar 1, 12:05am

Sun Feb 28, 11:04pm

Sun Feb 28, 10:04pm

Sun Feb 28, 9:04pm

Sun Feb 28, 8:04pm

Sun Feb 28, 7:04pm

Sun Feb 28, 6:05pm

Sun Feb 28, 5:04pm

Sun Feb 28, 4:05pm

Sun Feb 28, 2:04pm

Sun Feb 28, 1:04pm

Sun Feb 28, 12:04pm

Sun Feb 28, 11:04am

Sun Feb 28, 10:04am

Sun Feb 28, 9:04am

Sun Feb 28, 8:04am

Sun Feb 28, 7:04am

Sun Feb 28, 6:04am

Sun Feb 28, 5:04am

Sun Feb 28, 4:04am

Sun Feb 28, 3:04am

Sun Feb 28, 2:04am

Sun Feb 28, 1:04am

Sun Feb 28, 12:04am

Sat Feb 27, 11:04pm

Sat Feb 27, 10:04pm

Sat Feb 27, 9:04pm

Sat Feb 27, 8:04pm

Sat Feb 27, 7:04pm

Sat Feb 27, 6:04pm

Sat Feb 27, 5:04pm

Sat Feb 27, 4:04pm

Sat Feb 27, 3:05pm

Sat Feb 27, 2:05pm

Sat Feb 27, 1:04pm

Sat Feb 27, 12:04pm

Sat Feb 27, 11:04am

Sat Feb 27, 10:04am

Sat Feb 27, 9:05am

Sat Feb 27, 8:04am

Sat Feb 27, 7:04am

Sat Feb 27, 6:04am

Sat Feb 27, 5:04am

Sat Feb 27, 4:04am

Sat Feb 27, 3:04am

Sat Feb 27, 2:04am

Sat Feb 27, 1:04am

Sat Feb 27, 12:04am

Fri Feb 26, 11:04pm

Fri Feb 26, 10:04pm

Fri Feb 26, 9:04pm

Fri Feb 26, 8:04pm

Fri Feb 26, 7:04pm

Fri Feb 26, 6:04pm

Fri Feb 26, 5:04pm

Fri Feb 26, 4:04pm

Fri Feb 26, 3:04pm

Fri Feb 26, 2:04pm

Fri Feb 26, 1:04pm

Fri Feb 26, 12:04pm

Fri Feb 26, 11:04am

Fri Feb 26, 10:04am

Fri Feb 26, 9:04am

Fri Feb 26, 8:04am

Fri Feb 26, 7:04am

Fri Feb 26, 6:04am

Fri Feb 26, 5:04am

Fri Feb 26, 4:04am

Fri Feb 26, 3:04am

Fri Feb 26, 2:04am

Fri Feb 26, 1:04am

Fri Feb 26, 12:04am

Thu Feb 25, 11:04pm

Thu Feb 25, 10:04pm

Thu Feb 25, 9:04pm

Thu Feb 25, 8:05pm

Thu Feb 25, 7:05pm

Thu Feb 25, 6:04pm

Thu Feb 25, 5:04pm

Thu Feb 25, 4:05pm

Thu Feb 25, 3:05pm

Thu Feb 25, 2:04pm

Thu Feb 25, 1:04pm

Thu Feb 25, 12:05pm

Thu Feb 25, 11:04am

Thu Feb 25, 10:04am

Thu Feb 25, 9:04am

Thu Feb 25, 8:04am

Thu Feb 25, 7:04am

Thu Feb 25, 6:04am

Thu Feb 25, 5:04am

Thu Feb 25, 4:04am

Thu Feb 25, 3:04am

Thu Feb 25, 2:04am

Thu Feb 25, 1:04am

Thu Feb 25, 12:04am

Wed Feb 24, 11:04pm

Wed Feb 24, 10:05pm

Wed Feb 24, 9:04pm

Wed Feb 24, 8:04pm

Wed Feb 24, 7:04pm

Wed Feb 24, 6:04pm

Wed Feb 24, 5:04pm

Wed Feb 24, 4:04pm

Wed Feb 24, 3:04pm

Wed Feb 24, 2:05pm

Wed Feb 24, 1:05pm

Wed Feb 24, 12:05pm

Wed Feb 24, 11:04am

Wed Feb 24, 10:04am

Wed Feb 24, 9:04am

Wed Feb 24, 8:04am

Wed Feb 24, 7:04am

Wed Feb 24, 6:04am

Wed Feb 24, 5:04am

Wed Feb 24, 4:04am

Wed Feb 24, 3:04am

Meta data:

ID: d506533e-34f2-4186-8c8a-47f6d85a52fb
Link: https://api.weather.gov/products/d506533e-34f2-4186-8c8a-47f6d85a52fb